星链-11453 (STARLINK-11453)

导读 | 豆包AI

STARLINK-11453是美国太空探索技术公司(SpaceX)于2024年12月23日发射的星链(Starlink)低轨互联网卫星,隶属于SpaceX主导的星链巨型星座计划。该卫星运行于近地轨道,旨在为全球提供高速低延迟卫星互联网接入服务,延续了星链星座扩展全球网络覆盖的部署目标,是星链计划持续推进星座组网建设的一部分。

基本信息
目录编号:
62411
目录名称:
STARLINK-11453
国际标识:
2024-249C
轨道中心:
EARTH
卫星名称:
星链-11453
卫星全名:
星链-11453 (STARLINK-11453)
卫星状态:
在轨 (已飞行447 天)
发射日期:
2024-12-23 UTC
国别 :
美国 (US)
星等 :
--
轨道信息
数据来源 国际轨道数据
星历时间: 2026-03-14T20:53:10+0800
14小时前
查看轨道信息
半长轴: 6734.515km
偏心率: 0.0001197
轨道倾角: 43.000°
近地点辐角 274.781°
升交点赤经 138.379°
平近点角 85.292°
近地点: 355.571km
远地点: 357.185km
周期: 91.668分钟
每日圈数: 15.708811
详细信息
固有亮度:
5
最大亮度:
2.5
卫星平台:
Starlink V1.0
覆盖范围:
全球
运营商:
太空探索技术公司
运营商所在国:
美国
制造商(研发单位):
太空探索技术公司
制造商所在国:
美国
使用方式:
暂无
卫星简介
Starlink 计划是 SpaceX 推出的全球卫星互联网项目,通过发射低轨道卫星,为全球尤其是偏远地区提供高速、低延迟的互联网服务。自 2019 年起,Starlink 已部署数千颗卫星,旨在缩小全球数字鸿沟,推动互联网普及。该项目还为军事、航空等行业提供通信支持,带来广泛经济效益。
2D轨道图
3D轨道图
轨道高度分析图
轨道倾角分析图
轨道综合分析图
查看轨道综合分析图